Wind_Speed
33 34 25 29 35 33 30 25 24 21 20 16 15 17 14 10 13 18 16 17 14 14 10 10 13 12 8 5 5 5 5 2 3
33 26 20 29 34 33 30 25 25 18 17 17 16 15 16 14 14 17 15 18 16 12 11 9 7 6 4 4 4 0 5 4 5
27 26 33 28 27 24 25 22 24 21 15 18 17 15 16 12 17 16 14 13 10 8 7 7 5 3 3 3 2 3 7 3 3
28 29 32 30 27 26 24 24 25 25 18 19 13 16 18 13 12 14 14 12 12 6 4 5 5 4 4 4 3 5 7 3 2
31 34 30 35 30 30 26 26 26 25 21 21 16 16 18 19 20 14 12 11 5 7 4 5 6 4 4 4 5 4 10 8 7
26 32 27 35 30 28 26 26 27 27 26 22 20 23 22 21 19 14 8 6 8 7 6 5 5 5 5 3 3 5 7 7 7
21 17 21 32 27 28 26 28 29 28 27 26 22 23 21 20 16 8 6 12 12 9 7 9 6 5 4 6 7 6 7 8 10
22 20 22 25 26 30 28 28 29 28 24 28 28 24 23 22 15 12 16 16 12 10 8 7 6 7 7 8 8 6 9 9 8
22 20 24 24 27 33 30 29 29 27 27 25 23 19 17 15 15 20 19 15 11 10 10 9 6 8 9 13 10 8 11 8 8
22 21 24 25 27 34 31 30 30 29 26 25 24 27 25 23 21 20 18 16 15 13 11 8 8 8 13 13 12 10 13 9 8
28 24 26 26 29 33 30 28 27 27 26 24 25 26 24 24 24 23 20 17 16 13 10 11 11 11 14 9 10 12 13 12 9
33 29 29 28 28 32 32 30 29 29 30 30 28 27 25 26 25 24 22 19 17 15 12 12 15 13 10 9 11 13 14 11 9
32 30 30 32 29 31 31 32 31 32 32 29 31 30 27 27 25 25 23 19 18 17 16 15 13 12 11 10 13 16 19 16 7
31 34 33 32 31 34 33 34 34 34 33 31 29 28 31 29 26 23 22 20 18 17 19 16 17 14 12 13 15 19 20 18 14
7 7 37 35 32 35 36 36 36 36 38 34 29 30 31 29 26 26 24 23 21 21 21 21 21 16 15 16 17 20 21 21 19
8 14 37 37 35 37 39 38 40 39 37 36 35 32 33 31 27 26 26 26 25 24 25 24 22 20 19 19 20 23 23 24 21
4 6 2 28 35 39 41 41 39 37 38 37 36 35 34 31 28 28 28 27 26 26 28 26 24 23 23 21 22 24 24 25 22
11 10 1 3 35 39 39 41 42 38 38 39 38 39 35 32 31 32 31 30 29 28 26 27 25 24 24 24 23 25 23 22 23
12 12 8 2 19 35 36 41 43 39 39 40 41 41 39 35 35 36 34 31 29 29 27 24 24 21 20 23 17 18 21 23 22
13 12 9 2 6 28 32 38 42 39 39 42 44 43 39 37 37 37 36 34 34 32 31 26 28 26 25 25 24 21 20 20 23
Wind_Direction
177 185 173 166 163 164 169 170 177 187 189 190 195 192 186 208 193 189 186 180 189 204 207 209 217 247 239 277 277 294 303 11 68
151 173 150 157 167 166 166 168 182 197 191 189 208 203 190 206 180 166 180 174 191 203 206 206 195 209 239 251 279 313 61 319 290
167 170 166 163 164 170 168 175 180 185 204 190 195 197 187 173 164 164 190 193 180 181 187 189 202 221 203 209 199 166 147 279 71
169 171 163 161 163 170 172 178 180 181 192 190 199 192 171 174 163 196 183 181 177 196 186 186 200 204 206 202 203 143 184 259 94
169 164 160 169 170 164 170 177 179 184 180 195 181 184 179 181 188 187 176 165 218 204 192 175 174 217 185 187 142 136 144 146 112
144 149 157 165 170 164 170 178 180 182 191 190 185 166 161 165 169 169 170 190 200 212 184 205 207 210 191 162 138 138 132 129 111
140 153 156 164 168 166 173 179 182 184 191 187 193 197 189 186 192 197 217 207 218 210 189 198 229 199 176 133 123 121 126 119 98
148 171 169 172 171 167 175 178 183 184 195 201 205 207 221 220 221 193 214 221 213 196 214 218 226 173 140 130 120 136 118 124 118
160 179 169 178 171 164 169 179 183 182 193 206 199 207 213 203 199 208 216 224 217 214 214 233 186 157 134 118 191 171 134 138 152
170 180 170 177 169 168 173 182 189 184 195 203 195 200 202 199 208 211 217 224 217 221 222 216 172 170 164 190 203 176 159 147 142
167 175 172 182 172 171 179 181 185 186 190 199 197 202 203 205 211 218 218 212 216 217 221 184 171 187 205 200 185 174 166 166 154
166 171 173 179 175 177 178 184 186 186 191 200 200 196 200 207 210 209 212 215 209 188 196 178 190 203 206 191 180 175 167 146 157
168 170 174 179 184 176 182 185 189 187 196 205 211 204 200 211 217 218 217 213 204 195 197 195 190 202 203 185 186 176 162 146 173
175 172 174 179 183 177 183 186 191 192 196 206 204 202 210 218 219 222 217 208 205 200 192 188 194 205 199 191 188 177 166 162 161
255 141 173 177 183 180 185 188 191 192 198 206 205 204 215 220 221 217 210 208 204 199 189 196 203 207 200 197 190 187 180 173 174
106 301 194 177 181 183 190 191 197 199 198 200 204 210 217 221 221 209 209 205 204 198 196 208 208 210 205 204 196 192 193 185 187
353 334 41 181 178 181 189 194 201 209 203 203 205 208 215 218 213 207 207 207 208 205 206 209 211 210 207 211 202 201 203 198 197
329 319 289 327 177 182 196 198 200 206 208 205 207 212 214 214 208 206 209 210 212 209 216 218 217 216 207 213 212 211 211 209 207
324 306 315 209 167 183 196 197 199 204 209 210 211 212 214 212 206 208 211 207 211 205 218 216 217 222 215 222 237 229 216 216 211
328 313 275 217 155 197 200 201 200 208 206 212 213 218 218 214 207 210 213 210 213 206 208 213 208 211 219 213 236 237 229 218 216
Height
1472 1484 1488 1495 1503 1510 1520 1524 1529 1533 1537 1540 1542 1544 1547 1548 1551 1554 1557 1561 1564 1567 1569 1570 1571 1572 1573 1573 1573 1573 1573 1572 1572
1471 1480 1488 1496 1502 1510 1517 1522 1527 1531 1535 1539 1539 1542 1545 1547 1550 1553 1557 1560 1562 1564 1566 1568 1569 1570 1572 1571 1572 1572 1571 1572 1571
1467 1476 1485 1493 1501 1508 1515 1521 1527 1530 1533 1537 1538 1542 1544 1547 1550 1553 1557 1559 1562 1563 1565 1567 1568 1568 1569 1570 1570 1571 1571 1569 1570
1463 1472 1482 1491 1498 1505 1513 1520 1525 1530 1533 1537 1538 1540 1543 1547 1551 1554 1556 1559 1562 1563 1562 1565 1567 1567 1568 1568 1568 1569 1570 1569 1569
1458 1469 1479 1488 1495 1502 1510 1517 1523 1528 1533 1534 1537 1540 1543 1547 1551 1553 1557 1560 1562 1563 1563 1564 1565 1566 1566 1567 1567 1568 1569 1569 1569
1458 1468 1477 1486 1494 1501 1507 1515 1520 1526 1529 1534 1537 1540 1543 1547 1550 1554 1557 1559 1560 1562 1562 1564 1564 1565 1565 1565 1566 1568 1568 1570 1570
1463 1470 1476 1484 1491 1498 1505 1512 1517 1523 1527 1534 1535 1539 1543 1546 1549 1553 1558 1555 1561 1562 1562 1563 1563 1564 1565 1565 1567 1569 1569 1570 1571
1463 1471 1477 1482 1488 1495 1503 1509 1515 1521 1525 1529 1533 1537 1540 1544 1548 1553 1554 1557 1559 1559 1560 1561 1562 1564 1565 1566 1568 1569 1570 1572 1572
1462 1470 1475 1481 1486 1492 1500 1506 1512 1519 1523 1527 1530 1535 1538 1543 1547 1550 1552 1554 1557 1558 1559 1560 1561 1563 1565 1567 1568 1570 1572 1572 1573
1460 1467 1472 1478 1484 1489 1496 1503 1509 1516 1521 1525 1530 1533 1538 1541 1543 1546 1549 1552 1554 1555 1557 1559 1561 1562 1565 1566 1569 1570 1572 1573 1573
1453 1462 1469 1475 1482 1488 1494 1501 1508 1515 1520 1523 1527 1531 1536 1539 1542 1544 1547 1549 1552 1554 1556 1558 1561 1563 1564 1566 1568 1570 1572 1574 1575
1446 1454 1463 1471 1479 1485 1491 1499 1504 1511 1516 1521 1525 1529 1532 1536 1538 1542 1544 1547 1550 1553 1555 1557 1560 1562 1563 1565 1567 1569 1572 1574 1575
1442 1450 1460 1467 1475 1482 1489 1496 1501 1507 1511 1516 1521 1526 1529 1532 1535 1539 1542 1545 1548 1551 1554 1556 1559 1561 1562 1565 1567 1569 1571 1573 1576
1437 1445 1454 1463 1471 1477 1485 1492 1497 1503 1507 1511 1517 1523 1526 1529 1533 1537 1541 1544 1546 1549 1552 1555 1558 1559 1561 1564 1566 1568 1570 1572 1574
1439 1446 1445 1456 1466 1473 1479 1487 1495 1500 1503 1508 1514 1519 1522 1526 1531 1535 1538 1541 1544 1548 1551 1553 1555 1558 1560 1562 1564 1566 1568 1570 1572
1443 1456 1443 1449 1459 1467 1474 1480 1487 1495 1501 1506 1510 1514 1518 1524 1528 1531 1534 1538 1541 1545 1548 1550 1553 1555 1557 1559 1561 1563 1566 1568 1570
1441 1442 1446 1446 1453 1461 1468 1475 1481 1488 1497 1502 1506 1508 1513 1519 1523 1527 1531 1535 1537 1540 1542 1545 1548 1550 1552 1554 1557 1559 1562 1565 1567
1441 1440 1441 1447 1448 1455 1462 1469 1477 1484 1490 1497 1501 1505 1507 1513 1519 1523 1527 1530 1532 1534 1537 1540 1543 1545 1548 1549 1551 1554 1558 1560 1562
1447 1445 1444 1447 1452 1452 1459 1465 1472 1479 1484 1490 1495 1499 1502 1506 1511 1517 1522 1526 1528 1532 1534 1537 1539 1543 1546 1548 1549 1551 1554 1556 1559
1449 1448 1447 1447 1450 1456 1455 1462 1468 1475 1479 1482 1487 1491 1496 1501 1507 1510 1514 1519 1521 1525 1530 1532 1536 1540 1543 1546 1545 1547 1549 1552 1555